Temp
10 10 10 10 10 10 11 11 11 11 11 11 11 11 12 12 12 12 12 12 12 12 12 12 12 12 12 11 12 12 13 15 16 15 16 14 13 14 14 13 12 12 11 12 12
10 10 10 10 10 10 10 10 10 10 11 11 11 11 11 12 12 12 12 12 12 12 12 12 12 12 12 11 11 11 13 15 15 15 15 14 13 14 13 12 13 12 12 12 12
10 10 10 10 10 10 10 10 10 10 10 11 11 11 11 11 12 12 12 12 12 12 12 11 11 11 10 11 11 11 13 14 14 14 13 13 13 15 13 11 13 13 12 12 11
10 10 10 10 10 10 10 10 10 10 10 10 11 11 11 11 11 11 11 11 11 11 11 11 11 11 10 11 11 11 12 13 14 14 14 13 12 14 13 12 14 13 12 11 11
10 10 10 10 10 10 10 10 10 10 10 10 11 11 10 10 11 11 11 11 11 11 11 11 10 10 10 11 11 11 13 12 12 13 13 12 12 12 14 14 14 13 12 12 11
9 9 10 10 10 10 10 10 10 10 10 11 11 10 10 10 11 11 11 10 10 11 11 10 9 9 10 10 11 11 12 11 11 12 13 13 12 13 14 13 13 13 13 12 11
9 9 10 10 10 10 10 10 10 10 10 11 10 10 10 10 10 10 10 10 10 10 10 10 10 10 10 10 10 10 11 10 12 12 12 12 12 13 14 13 13 13 13 12 12
9 9 9 10 10 10 10 10 10 10 10 10 10 10 10 10 10 10 10 9 10 10 10 10 10 9 10 9 10 10 11 12 11 12 13 12 13 11 13 13 12 13 13 13 12
9 9 9 9 10 10 10 10 10 10 10 10 10 10 9 10 10 10 9 9 10 10 10 10 9 9 9 10 11 11 13 13 12 11 11 11 13 12 13 12 12 13 12 12 12
9 9 9 9 9 10 10 10 10 10 10 10 10 10 9 8 9 10 9 9 9 9 9 9 9 9 10 11 13 13 12 13 13 11 10 11 13 12 12 12 12 12 12 12 12
9 9 9 9 9 9 9 9 10 9 9 9 9 9 9 9 9 9 9 9 8 8 9 8 9 10 11 11 12 12 12 13 13 13 11 12 12 11 12 11 12 12 12 12 11
9 9 9 9 9 9 9 9 9 8 9 9 9 10 10 10 9 9 9 8 8 9 9 9 10 11 10 10 10 11 11 12 12 12 10 12 12 12 11 12 11 11 11 11 11
9 9 9 9 9 9 9 9 9 9 9 9 9 10 10 9 9 9 9 8 9 9 9 10 11 10 9 10 10 10 11 12 12 11 10 11 12 12 11 10 11 11 11 11 11
9 9 8 8 8 8 8 9 9 9 10 9 8 8 9 9 9 9 9 9 9 10 10 10 10 9 9 10 10 11 11 10 11 11 12 11 13 13 12 10 10 11 11 11 11
8 8 8 8 8 8 8 9 9 9 12 9 9 9 9 8 9 9 9 9 9 10 9 11 10 10 10 10 10 10 11 11 11 11 11 12 12 12 13 12 11 11 11 11 11
8 8 8 8 8 9 9 9 9 9 9 8 8 8 9 8 8 8 8 9 9 9 9 10 10 9 10 10 10 10 10 10 10 11 12 12 12 12 13 12 11 11 11 12 12
8 8 8 8 9 9 9 9 9 10 8 7 7 8 8 8 8 8 8 8 8 9 11 10 10 10 9 10 10 10 10 11 12 13 13 12 12 12 12 12 11 11 11 9 11
8 8 8 8 8 8 8 8 8 6 6 6 6 7 7 6 7 7 7 8 6 7 8 10 11 9 8 9 9 10 10 12 12 14 15 14 14 12 11 11 11 11 11 10 11
7 7 8 8 8 8 7 8 5 4 5 5 7 7 7 6 6 6 7 5 4 4 5 7 8 9 8 8 8 10 9 10 10 11 12 13 13 11 11 10 10 11 10 10 10
7 7 7 7 7 7 7 6 4 5 5 5 5 5 6 5 5 6 6 4 4 3 4 5 5 7 7 7 8 8 9 9 10 10 11 13 13 13 8 7 9 9 9 9 7
7 6 8 8 7 6 6 5 4 4 4 4 4 4 4 4 4 5 5 3 2 2 3 3 4 5 6 7 8 8 6 8 8 9 11 12 12 7 6 6 7 7 7 7 5
7 6 8 8 6 6 5 4 4 4 4 3 3 3 2 3 3 4 4 3 1 1 2 2 2 3 4 5 5 6 7 7 8 9 9 10 10 6 6 5 5 6 6 5 4
7 7 7 7 6 4 4 4 4 3 3 3 3 3 2 2 2 3 2 1 1 0 1 1 3 3 5 5 5 3 2 1 3 5 6 8 8 5 4 4 4 5 5 4 4
7 5 7 7 7 4 3 3 3 3 3 3 2 1 1 2 1 1 1 1 0 -0 1 -0 1 2 2 2 2 1 -0 -1 -1 2 5 6 7 3 1 2 3 3 3 3 2
7 7 7 6 6 5 4 4 3 3 3 3 0 0 0 1 1 1 1 0 -0 -1 -1 -1 0 1 2 2 2 2 1 -0 -1 -2 -0 2 1 -1 0 2 1 2 2 2 0
7 7 7 6 6 5 4 3 3 3 3 0 1 1 -0 -0 -0 -0 -1 -1 -1 -1 -1 -1 -0 0 1 2 2 2 1 0 -2 -3 -2 -1 -1 -2 -1 -0 0 0 0 -0 1
7 7 6 6 5 4 3 3 3 3 2 2 2 0 -0 1 1 1 -0 -1 -1 -2 -2 -2 -2 -1 1 0 -0 2 -3 -2 -3 -4 -2 -2 -3 -1 -1 -2 -2 -2 -2 -3 -2
Height
3173 3172 3170 3168 3167 3165 3165 3164 3163 3161 3161 3160 3160 3159 3159 3158 3158 3158 3158 3160 3160 3161 3162 3164 3167 3170 3172 3175 3177 3181 3186 3183 3185 3186 3187 3184 3185 3185 3186 3186 3187 3189 3190 3191 3191
3170 3168 3167 3165 3164 3162 3162 3161 3160 3159 3159 3158 3157 3156 3156 3155 3154 3154 3156 3156 3157 3159 3159 3162 3164 3167 3169 3171 3173 3177 3181 3181 3184 3185 3187 3185 3186 3184 3186 3185 3185 3186 3187 3189 3190
3167 3166 3164 3163 3161 3160 3160 3159 3158 3157 3157 3156 3155 3154 3153 3152 3152 3152 3153 3154 3155 3156 3157 3159 3162 3165 3168 3170 3171 3173 3176 3180 3182 3181 3182 3185 3185 3184 3186 3186 3185 3185 3186 3188 3189
3165 3163 3162 3160 3159 3158 3157 3156 3155 3155 3155 3153 3153 3152 3151 3151 3155 3150 3151 3152 3152 3153 3155 3157 3159 3162 3165 3166 3169 3170 3172 3176 3179 3177 3179 3182 3184 3183 3184 3185 3184 3184 3185 3187 3188
3162 3161 3160 3159 3157 3156 3155 3154 3153 3153 3152 3151 3151 3150 3150 3150 3149 3149 3150 3150 3150 3152 3153 3155 3157 3161 3163 3165 3167 3165 3171 3172 3173 3174 3175 3178 3179 3179 3180 3181 3182 3182 3183 3185 3187
3161 3160 3159 3157 3155 3154 3153 3151 3151 3151 3150 3149 3149 3148 3148 3148 3147 3147 3148 3149 3149 3150 3151 3153 3156 3158 3161 3161 3163 3164 3167 3168 3168 3172 3171 3174 3174 3176 3177 3178 3179 3181 3182 3183 3185
3160 3158 3158 3156 3154 3153 3151 3150 3149 3148 3147 3147 3147 3146 3146 3146 3144 3145 3146 3148 3148 3148 3149 3151 3153 3156 3158 3159 3158 3161 3164 3163 3164 3167 3169 3171 3171 3172 3173 3175 3176 3178 3179 3181 3183
3158 3157 3156 3154 3153 3152 3151 3149 3148 3147 3145 3144 3145 3145 3144 3143 3143 3143 3144 3145 3146 3147 3148 3149 3151 3154 3157 3157 3157 3160 3162 3162 3162 3163 3164 3167 3169 3167 3170 3172 3173 3174 3176 3177 3180
3156 3156 3154 3153 3152 3151 3150 3148 3147 3145 3143 3143 3143 3143 3144 3142 3142 3143 3143 3144 3145 3146 3147 3148 3151 3154 3155 3157 3158 3157 3155 3157 3158 3160 3162 3162 3167 3161 3166 3168 3169 3170 3172 3174 3176
3155 3154 3153 3152 3151 3150 3148 3147 3146 3144 3143 3142 3142 3145 3143 3143 3141 3142 3143 3144 3144 3145 3146 3148 3151 3152 3154 3155 3152 3151 3154 3154 3155 3157 3158 3160 3162 3160 3161 3163 3164 3166 3168 3170 3171
3153 3152 3151 3150 3149 3148 3148 3147 3148 3147 3143 3144 3143 3140 3140 3141 3141 3142 3142 3144 3145 3147 3149 3148 3151 3149 3151 3152 3152 3152 3152 3151 3153 3155 3156 3157 3158 3157 3157 3158 3160 3161 3163 3165 3166
3151 3150 3149 3148 3148 3147 3147 3146 3145 3147 3145 3144 3142 3139 3137 3139 3142 3142 3143 3146 3146 3148 3147 3148 3147 3148 3148 3149 3150 3150 3150 3150 3151 3152 3152 3153 3152 3154 3151 3153 3155 3156 3158 3159 3161
3149 3148 3148 3147 3147 3147 3146 3146 3145 3145 3145 3145 3143 3141 3140 3142 3143 3144 3144 3146 3146 3147 3146 3146 3146 3145 3146 3146 3147 3147 3147 3147 3148 3148 3148 3149 3146 3147 3148 3146 3148 3150 3152 3153 3154
3148 3147 3147 3146 3148 3146 3145 3144 3144 3144 3147 3151 3146 3144 3144 3144 3145 3143 3142 3146 3145 3145 3145 3143 3143 3142 3143 3143 3144 3142 3142 3144 3143 3144 3141 3142 3136 3137 3141 3142 3141 3144 3145 3147 3148
3148 3147 3146 3146 3146 3145 3146 3143 3143 3144 3143 3152 3149 3147 3145 3146 3146 3144 3142 3142 3143 3143 3144 3141 3140 3140 3139 3139 3139 3138 3139 3138 3138 3137 3137 3134 3135 3131 3133 3134 3137 3137 3140 3141 3141
3148 3147 3146 3146 3145 3145 3144 3143 3145 3147 3149 3152 3151 3149 3149 3146 3145 3144 3143 3140 3140 3140 3139 3137 3137 3137 3136 3136 3135 3135 3135 3134 3134 3132 3125 3127 3127 3123 3126 3127 3132 3134 3134 3133 3132
3149 3148 3147 3146 3146 3145 3144 3145 3148 3148 3153 3153 3150 3149 3148 3146 3144 3143 3143 3141 3140 3138 3133 3133 3133 3133 3132 3131 3131 3131 3131 3127 3122 3119 3113 3118 3116 3114 3120 3121 3123 3126 3126 3126 3123
3151 3150 3149 3148 3147 3146 3146 3149 3149 3153 3152 3151 3150 3149 3148 3145 3145 3143 3142 3141 3138 3136 3134 3130 3130 3131 3129 3130 3128 3125 3125 3119 3110 3105 3101 3104 3100 3107 3110 3114 3115 3115 3117 3116 3115
3152 3152 3151 3150 3148 3148 3149 3150 3153 3152 3152 3150 3150 3148 3147 3146 3145 3142 3141 3140 3137 3135 3137 3133 3128 3127 3128 3126 3127 3122 3119 3118 3112 3109 3102 3098 3099 3098 3100 3102 3106 3108 3108 3107 3106
3155 3154 3152 3151 3150 3149 3151 3151 3152 3151 3150 3150 3149 3148 3146 3144 3143 3141 3139 3137 3136 3134 3134 3132 3126 3125 3123 3122 3120 3118 3117 3114 3108 3103 3096 3090 3091 3089 3094 3096 3097 3100 3100 3099 3099
3156 3156 3153 3151 3150 3151 3152 3151 3151 3149 3149 3148 3147 3146 3144 3142 3141 3139 3138 3137 3134 3132 3131 3129 3126 3121 3119 3116 3114 3112 3111 3108 3105 3100 3091 3087 3087 3089 3092 3093 3092 3093 3093 3093 3092
3157 3158 3153 3151 3153 3149 3151 3149 3149 3147 3146 3145 3144 3143 3141 3140 3138 3138 3138 3136 3132 3129 3127 3126 3121 3114 3113 3111 3109 3108 3106 3104 3099 3093 3091 3087 3086 3087 3089 3091 3089 3090 3089 3089 3088
3157 3155 3153 3151 3154 3150 3147 3147 3146 3145 3144 3142 3141 3140 3138 3138 3138 3136 3135 3134 3131 3127 3124 3122 3117 3110 3102 3104 3102 3098 3096 3096 3094 3091 3087 3088 3086 3085 3085 3085 3085 3085 3086 3085 3085
3156 3157 3153 3151 3149 3148 3147 3145 3145 3144 3142 3140 3139 3138 3137 3137 3136 3133 3132 3130 3127 3124 3120 3118 3116 3114 3107 3104 3104 3097 3097 3096 3095 3093 3087 3084 3084 3080 3081 3081 3082 3082 3082 3082 3083
3156 3155 3153 3151 3148 3146 3146 3145 3145 3144 3142 3139 3139 3137 3136 3135 3133 3131 3129 3125 3122 3118 3117 3115 3111 3108 3103 3099 3096 3091 3089 3092 3091 3092 3091 3080 3081 3077 3076 3077 3081 3079 3080 3079 3080
3156 3154 3152 3149 3147 3146 3145 3144 3144 3142 3141 3139 3137 3135 3133 3133 3131 3126 3122 3121 3119 3116 3114 3111 3108 3104 3098 3093 3087 3084 3086 3086 3087 3084 3084 3079 3080 3076 3077 3078 3079 3075 3075 3075 3076
3154 3152 3151 3149 3147 3146 3145 3143 3142 3140 3139 3137 3135 3133 3132 3128 3125 3122 3119 3117 3116 3114 3112 3109 3106 3100 3093 3088 3083 3080 3082 3084 3083 3080 3079 3079 3074 3073 3077 3078 3075 3073 3073 3074 3073
Wind_Speed
16 16 15 15 15 15 16 16 15 16 15 15 14 13 13 11 11 12 13 13 14 14 15 14 15 19 23 24 25 21 17 20 17 12 5 7 13 15 16 14 13 11 8 10 6
14 14 14 14 14 14 15 15 14 14 13 13 13 11 11 10 11 11 12 12 13 13 14 12 13 16 20 21 23 21 21 22 16 13 9 11 11 13 13 11 14 14 13 10 7
13 13 13 13 13 13 13 13 13 13 12 12 11 9 9 8 9 11 10 11 12 12 13 13 14 15 16 17 21 22 25 22 18 14 13 12 15 14 13 10 11 11 11 11 8
11 12 12 12 12 12 12 12 12 12 11 10 9 8 7 6 1 7 8 9 10 11 13 13 14 15 14 18 20 21 23 20 20 20 17 13 16 20 15 16 10 7 10 9 9
10 10 11 11 11 11 11 10 11 11 9 9 9 7 6 5 8 9 7 5 6 10 12 13 14 13 15 16 18 22 17 21 19 23 20 15 21 21 19 17 12 9 9 8 11
9 9 9 10 10 10 10 9 10 10 9 8 8 7 5 6 8 9 10 6 1 7 12 14 13 13 12 12 16 15 21 16 20 20 28 21 26 27 22 20 16 11 12 10 12
9 9 9 9 9 9 9 9 9 9 8 7 7 6 5 7 6 6 8 10 9 7 13 15 15 14 10 10 17 14 16 16 23 24 22 21 28 30 27 22 19 17 14 15 14
10 10 9 9 9 9 9 8 7 7 7 6 6 6 6 7 6 8 7 7 8 9 12 15 16 14 11 12 10 13 16 20 20 26 27 26 27 26 30 23 22 20 18 15 16
10 10 9 9 9 8 8 8 8 8 5 4 5 6 5 6 6 8 9 7 7 8 11 13 16 13 13 12 12 15 17 22 17 20 18 26 28 28 29 30 24 23 22 20 18
9 9 9 8 8 8 8 8 8 7 7 3 5 2 6 8 6 6 10 9 6 6 9 13 13 14 14 17 19 16 19 15 23 17 21 21 27 20 28 31 30 26 25 23 21
8 8 8 8 7 7 7 6 7 13 11 11 11 3 11 9 7 5 8 9 8 6 7 10 13 18 16 17 16 12 15 18 16 20 19 28 29 26 34 30 31 32 27 27 26
7 7 7 7 7 6 6 7 6 8 18 12 16 12 2 10 4 2 5 8 10 8 9 8 15 14 15 14 14 15 16 18 17 17 20 23 33 32 32 37 33 30 31 29 29
5 5 6 7 6 5 5 5 4 13 12 19 14 14 10 8 4 2 4 6 7 10 11 14 7 10 13 13 15 17 19 18 20 13 17 20 28 31 33 38 36 37 34 31 30
4 4 4 5 4 5 5 4 2 8 6 10 13 10 9 11 6 7 5 6 7 6 11 15 13 14 14 15 15 19 19 20 21 21 25 24 28 29 30 31 36 38 40 38 37
4 4 4 4 4 4 4 4 3 10 1 6 13 13 6 5 2 7 3 6 8 8 5 7 6 7 10 13 13 21 18 18 18 22 23 26 22 28 28 29 30 32 35 35 39
6 5 4 4 4 4 4 4 7 2 5 4 8 8 5 6 10 8 6 4 9 10 15 16 14 13 14 14 14 11 15 18 18 21 24 27 28 29 29 30 31 31 28 32 37
9 8 7 6 6 6 5 4 2 6 5 7 9 8 8 8 7 11 9 7 5 8 10 10 15 17 14 16 17 17 20 22 20 19 17 27 32 29 25 19 22 25 25 32 39
13 13 11 10 9 8 6 7 8 3 6 8 9 5 5 11 9 12 10 6 8 7 10 11 11 3 7 7 13 14 20 26 23 17 20 26 27 27 26 27 29 32 36 35 36
15 14 12 12 11 9 8 8 4 4 7 10 9 6 7 12 11 13 10 4 8 11 9 15 20 13 16 20 16 16 15 19 24 30 27 33 31 18 24 26 27 30 32 34 34
12 10 8 9 10 9 5 7 3 2 6 7 8 7 13 14 13 14 9 6 6 12 11 12 23 18 19 20 18 20 23 20 22 19 23 26 27 22 6 6 23 26 28 30 29
8 6 9 8 8 6 6 5 3 6 9 9 10 12 11 13 14 12 5 5 9 13 14 17 19 24 20 20 22 22 23 26 29 28 17 18 18 1 5 2 7 12 15 21 23
6 3 8 9 6 8 6 3 2 7 11 8 6 6 6 9 9 5 5 7 14 17 18 14 15 26 26 27 27 26 28 30 32 25 31 28 27 8 12 8 10 10 8 10 17
7 8 7 13 4 7 7 5 5 6 6 7 5 6 8 6 5 7 6 11 10 17 13 14 11 25 22 21 17 14 12 20 22 27 28 23 27 13 12 12 10 16 15 8 8
8 5 9 11 12 7 4 6 6 8 8 9 6 7 8 6 6 8 10 13 19 15 14 12 13 18 24 27 25 33 27 27 15 18 30 31 27 2 4 3 7 9 13 13 13
5 5 6 7 10 8 7 5 6 7 7 7 5 8 9 7 13 5 17 19 17 12 14 10 16 19 24 26 28 32 31 26 26 18 18 11 11 12 16 11 8 12 12 16 21
4 4 6 8 9 9 7 5 6 7 7 6 7 8 8 7 11 19 18 14 9 12 10 10 13 20 26 25 22 24 23 19 19 16 26 22 16 15 16 11 5 9 13 17 22
2 4 6 6 7 6 5 5 6 7 7 7 8 8 7 12 13 11 11 11 8 8 10 11 15 19 19 23 19 13 7 4 3 5 11 10 14 20 14 6 1 8 12 19 23
Wind_Direction
294 295 298 300 301 302 297 295 295 293 293 290 286 282 279 274 268 259 254 252 249 243 246 237 233 223 222 222 227 221 227 235 228 228 232 202 186 197 218 237 241 252 251 259 257
300 303 304 305 304 301 297 296 297 294 294 289 287 285 279 274 268 260 254 248 244 236 238 232 231 222 219 218 222 214 224 227 227 227 222 222 197 213 223 235 248 255 260 250 239
305 305 306 305 303 301 299 300 297 297 294 293 289 290 284 279 275 267 255 240 234 230 231 225 220 216 211 214 217 222 225 225 230 236 226 219 203 211 220 219 256 240 262 263 210
308 306 305 304 303 301 302 300 297 296 295 295 294 292 288 280 192 261 245 230 227 223 221 221 218 216 211 220 219 221 228 227 229 223 225 221 209 215 215 217 231 219 232 217 199
318 316 314 307 305 304 300 295 296 292 298 299 294 289 287 271 246 249 242 225 229 216 212 212 213 207 214 225 221 228 224 233 232 216 232 224 211 216 214 212 204 205 212 205 207
325 325 324 320 316 308 300 299 295 296 301 297 291 287 280 258 250 241 234 214 218 217 211 208 200 207 211 215 219 237 221 233 225 225 230 240 217 216 213 205 207 211 214 210 218
314 318 323 331 331 321 316 315 309 302 297 297 291 282 267 248 239 226 230 233 243 221 210 208 204 191 208 215 218 224 221 234 225 222 235 228 224 220 211 218 214 213 218 219 224
308 310 314 320 327 335 337 337 329 316 307 299 283 270 256 247 231 213 206 220 231 225 223 211 196 194 189 209 208 215 221 229 229 218 229 229 219 219 217 222 222 222 223 228 233
305 308 311 312 317 329 345 355 354 345 341 315 283 259 255 246 228 218 207 220 227 222 217 211 197 194 207 205 217 217 226 224 213 222 229 223 218 215 222 228 233 230 231 235 234
303 309 314 314 322 334 348 356 5 24 19 22 46 67 212 202 213 211 216 226 238 224 213 203 203 211 212 214 225 226 230 231 231 234 220 221 208 220 228 236 237 239 237 242 245
302 310 317 326 336 347 357 16 69 63 56 55 31 245 231 219 222 229 217 219 225 208 207 210 210 219 228 230 239 237 241 241 239 230 230 228 231 238 238 241 242 240 244 245 246
304 305 320 332 343 359 21 34 64 95 67 58 44 42 8 206 190 250 227 213 225 231 222 230 233 235 228 228 230 239 242 243 243 235 236 234 236 234 247 244 248 247 251 252 251
321 316 318 339 350 10 23 18 86 129 73 35 36 52 77 125 119 266 225 219 245 243 245 245 252 233 232 240 238 242 242 245 246 243 240 243 246 239 237 249 247 245 248 254 258
352 341 345 349 355 11 18 7 65 158 102 44 23 19 89 109 62 29 241 227 253 260 247 254 251 247 242 245 244 252 245 245 248 243 247 236 253 239 238 246 245 247 250 254 260
29 26 20 16 20 40 16 18 112 152 157 9 17 48 70 56 330 317 335 251 250 268 247 250 240 249 245 254 257 253 252 247 247 249 250 245 252 253 246 238 242 243 250 254 257
42 37 27 14 14 20 15 54 114 120 69 15 20 22 37 48 46 35 14 341 278 261 256 260 263 260 259 264 263 256 243 245 249 251 246 246 251 251 247 241 243 246 250 249 251
41 35 24 17 10 12 23 93 73 45 1 343 360 9 14 20 16 13 8 5 22 307 271 270 268 266 274 276 261 252 248 253 240 235 246 253 247 250 256 262 236 239 233 243 245
48 42 32 29 29 34 54 60 67 55 24 358 345 329 2 1 344 355 347 334 354 355 295 291 270 263 301 303 284 273 252 255 265 260 265 262 247 254 249 244 243 244 241 243 253
48 42 41 43 49 54 66 50 62 15 349 344 341 329 320 335 340 339 337 0 14 11 342 307 280 274 286 284 274 275 253 268 281 274 277 271 266 261 245 239 246 244 245 248 250
40 38 40 41 42 44 50 97 86 31 346 349 339 325 318 320 328 324 316 338 351 353 335 294 296 283 283 285 274 257 266 274 250 262 266 266 263 281 184 229 241 248 250 251 247
34 32 24 35 30 28 78 107 88 322 325 328 323 313 309 320 321 320 309 311 336 336 329 310 290 288 288 272 279 273 256 255 263 266 282 278 281 31 117 159 226 241 264 254 236
45 17 24 26 28 48 68 88 358 314 322 327 325 337 333 338 333 340 326 322 330 334 322 306 293 289 284 275 269 270 271 273 266 266 255 260 273 238 238 276 297 295 301 292 244
29 20 27 26 41 42 38 18 359 3 359 355 330 325 330 332 333 316 314 320 327 335 324 317 297 302 301 295 277 251 259 333 280 275 266 268 262 253 255 274 296 274 257 246 237
31 1 16 19 26 55 80 42 24 8 356 358 0 351 342 323 308 302 312 316 317 320 318 310 289 283 287 293 284 287 292 301 321 294 274 255 267 232 27 336 302 277 233 208 199
39 28 30 24 18 31 45 49 22 2 357 2 348 353 343 331 322 313 316 318 322 302 321 296 286 290 289 293 290 270 272 278 281 301 307 311 331 337 331 314 273 271 260 230 204
52 29 28 24 24 37 31 20 360 354 2 349 359 353 347 328 313 313 320 330 329 331 326 310 298 302 299 305 295 274 264 272 270 285 295 294 310 333 336 328 216 251 232 228 230
46 33 35 21 27 38 12 8 355 357 357 356 358 356 341 328 330 325 333 333 321 332 333 329 321 319 314 320 297 277 21 321 319 301 277 305 291 284 302 340 176 189 202 203 223